Change the Weather History Date:

Sunday, December 16, 2012

  Actual Average Record
Temperature  
Mean Temperature 54 °F 42 °F  
Max Temperature 57 °F 52 °F 74 °F (1971)
Min Temperature 51 °F 33 °F 8 °F (1989)
Degree Days  
Heating Degree Days 11 23  
Month to date heating degree days 195 338  
Since 1 July heating degree days 818 927  
Cooling Degree Days 0 0  
Month to date cooling degree days 1 0  
Year to date cooling degree days 2026 1741  
Growing Degree Days 4 (Base 50)    
Moisture  
Dew Point 53 °F    
Average Humidity 95    
Maximum Humidity 100    
Minimum Humidity 89    
Precipitation  
Precipitation 1.30 in 0.15 in 1.48 in (1892)
Month to date precipitation 2.53 2.69  
Year to date precipitation 47.74 50.27  
Snow  
Snow 0.00 in 0.00 in - ()
Month to date snowfall 0.0 0.1  
Since 1 July snowfall 0.0 0.1  
Snow Depth 0.00 in    
Sea Level Pressure  
Sea Level Pressure 29.93 in    
Wind  
Wind Speed 4 mph (SSE)    
Max Wind Speed 20 mph    
Max Gust Speed 25 mph    
Visibility 5 miles    
Events Rain , Thunderstorm    
T = Trace of Precipitation, MM = Missing Value Source: NWS Daily Summary

Daily Weather History Graph

Daily Weather History Graph

Search for Another Location

Airport or City:

Trip Planner

Search our weather history database for the weather conditions in past years. The results will help you decide how hot, cold, wet, or windy it might be!

Date:

Astronomy

Dec. 16, 2012 Rise Set
Actual Time 7:42 AM EST 5:31 PM EST
Civil Twilight 7:14 AM EST 5:59 PM EST
Nautical Twilight 6:42 AM EST 6:30 PM EST
Astronomical Twilight 6:11 AM EST 7:01 PM EST
Moon 10:22 AM EST (12/16) 9:36 PM EST (12/16)
Length of Visible Light 10h 44m
Length of Day
9h 48m
Waxing Crescent, 16% of the Moon is Illuminated
Dec 16
Waxing Crescent
Dec 20
First Quarter
Dec 28
Full
Jan 4
Last Quarter
Jan 11
New

Hourly Weather History & Observations

Time (EST) Temp. Dew Point Humidity Pressure Visibility Wind Dir Wind Speed Gust Speed Precip Events Conditions
12:28 AM 53.6 °F 51.8 °F 94% 30.02 in 10.0 mi Calm Calm - 0.02 in Rain Light Rain
12:53 AM 53.1 °F 51.1 °F 93% 30.01 in 10.0 mi Calm Calm - 0.02 in   Overcast
1:53 AM 53.1 °F 50.0 °F 89% 29.98 in 10.0 mi Calm Calm - N/A   Overcast
2:53 AM 53.1 °F 50.0 °F 89% 29.98 in 10.0 mi Calm Calm - N/A   Overcast
3:53 AM 53.1 °F 51.1 °F 93% 29.96 in 10.0 mi Calm Calm - N/A   Overcast
4:53 AM 53.1 °F 51.1 °F 93% 29.95 in 10.0 mi Calm Calm - N/A   Overcast
5:41 AM 51.8 °F 50.0 °F 94% 29.96 in 2.0 mi North 4.6 mph - 0.07 in Rain Rain
5:50 AM 51.8 °F 50.0 °F 94% 29.96 in 4.0 mi ENE 3.5 mph - 0.11 in Rain Rain
5:53 AM 52.0 °F 51.1 °F 97% 29.95 in 5.0 mi NE 3.5 mph - 0.11 in Rain Light Rain
6:53 AM 52.0 °F 51.1 °F 97% 29.95 in 10.0 mi North 4.6 mph - 0.00 in   Overcast
7:53 AM 51.8 °F 51.8 °F 100% 30.00 in 1.8 mi North 6.9 mph - N/A Rain Heavy Rain
8:37 AM 51.8 °F 51.8 °F 100% 29.97 in 1.5 mi SSE 3.5 mph - 0.31 in Rain , Thunderstorm Heavy Thunderstorms and Rain
8:53 AM 52.0 °F 52.0 °F 100% 29.96 in 1.5 mi SSE 3.5 mph - 0.35 in Rain , Thunderstorm Thunderstorms and Rain
8:57 AM 51.8 °F 51.8 °F 100% 29.97 in 3.0 mi Calm Calm - 0.01 in Rain Rain
9:19 AM 53.6 °F 51.8 °F 94% 29.97 in 1.8 mi Calm Calm - 0.04 in Rain Rain
9:53 AM 53.1 °F 53.1 °F 100% 30.00 in 1.8 mi SSW 3.5 mph - 0.08 in Rain Light Rain
10:53 AM 54.0 °F 54.0 °F 100% 29.99 in 1.8 mi South 3.5 mph - 0.14 in Rain Light Rain
11:53 AM 55.9 °F 55.0 °F 97% 29.93 in 1.8 mi Variable 4.6 mph - 0.04 in Rain Light Rain
12:43 PM 57.2 °F 55.4 °F 94% 29.94 in 7.0 mi South 4.6 mph - 0.03 in Rain Light Rain
12:53 PM 57.0 °F 55.9 °F 96% 29.92 in 7.0 mi SE 9.2 mph - 0.04 in Rain Light Rain
1:53 PM 57.0 °F 55.9 °F 96% 29.89 in 10.0 mi SSE 5.8 mph - 0.01 in Rain Light Rain
2:53 PM 57.0 °F 55.9 °F 96% 29.91 in 3.0 mi South 6.9 mph - 0.02 in Rain Light Rain
3:07 PM 57.2 °F 55.4 °F 94% 29.92 in 2.0 mi South 6.9 mph - 0.00 in Rain Light Rain
3:27 PM 57.2 °F 55.4 °F 94% 29.92 in 2.0 mi SSE 5.8 mph - 0.01 in Rain Light Rain
3:53 PM 57.0 °F 55.9 °F 96% 29.90 in 2.0 mi SSE 8.1 mph - 0.03 in Rain Light Rain
4:33 PM 57.2 °F 55.4 °F 94% 29.90 in 2.0 mi South 8.1 mph - 0.04 in Rain Light Rain
4:53 PM 57.0 °F 55.9 °F 96% 29.89 in 2.0 mi SSE 5.8 mph - 0.06 in Rain Light Rain
5:53 PM 55.9 °F 55.9 °F 100% 29.91 in 2.0 mi SW 3.5 mph - 0.03 in Rain Light Rain
6:53 PM 55.9 °F 55.9 °F 100% 29.93 in 2.0 mi South 6.9 mph - 0.10 in Rain Rain
7:26 PM 55.4 °F 55.4 °F 100% 29.93 in 1.5 mi South 5.8 mph - 0.08 in Rain Rain
7:53 PM 55.9 °F 55.9 °F 100% 29.94 in 1.5 mi South 4.6 mph - 0.14 in Rain Light Rain
8:53 PM 55.9 °F 55.0 °F 97% 29.89 in 1.5 mi SSE 8.1 mph - 0.06 in Rain Light Rain
9:25 PM 55.4 °F 53.6 °F 94% 29.87 in 5.0 mi SSE 11.5 mph 17.3 mph 0.00 in   Overcast
9:53 PM 55.9 °F 54.0 °F 93% 29.88 in 7.0 mi South 5.8 mph - 0.00 in Rain Light Rain
10:48 PM 55.4 °F 53.6 °F 94% 29.83 in 7.0 mi South 6.9 mph - 0.01 in   Light Drizzle
10:53 PM 55.9 °F 54.0 °F 93% 29.83 in 7.0 mi SSW 5.8 mph - 0.01 in   Overcast
11:44 PM 55.4 °F 53.6 °F 94% 29.84 in 10.0 mi South 5.8 mph - N/A   Overcast
11:53 PM 55.0 °F 54.0 °F 96% 29.83 in 10.0 mi SSW 4.6 mph - N/A   Overcast